Location: Unspecified
(0.0000°N, 0.0000°E)
Time: 00:09:19
(UTC+00:00)

S-56A Canister/Altair - All Passes

Search period start: 08 December 2016 00:00
Search period end: 18 December 2016 00:00
Orbit: 640 x 2495 km, 38.9° (Epoch: 07 December)

Date Brightness Start Highest point End Pass type
(mag) Time Alt. Az. Time Alt. Az. Time Alt. Az.
08 Dec - 01:21:37 10° NW 01:36:29 83° NE 01:50:42 10° SE visible
08 Dec - 03:30:15 10° WNW 03:43:18 36° SW 03:54:29 10° SSE visible
08 Dec - 12:14:23 10° S 12:17:31 17° SE 12:20:29 10° E daylight
08 Dec - 14:17:02 10° WSW 14:21:10 37° NW 14:25:47 10° NNE daylight
08 Dec - 22:45:43 10° NNW 22:55:53 26° NE 23:07:13 10° E night (unlit)
09 Dec - 00:48:40 10° NW 01:03:07 75° NE 01:17:40 10° SE visible
09 Dec - 02:56:22 10° WNW 03:10:03 41° SW 03:22:09 10° SSE visible
09 Dec - 11:42:38 10° S 11:45:07 14° SE 11:47:28 10° ESE daylight
09 Dec - 13:44:35 10° WSW 13:48:56 48° NW 13:53:31 10° NE daylight
09 Dec - 22:13:40 10° N 22:22:35 22° NE 22:32:42 10° E night (unlit)
10 Dec - 00:15:51 10° NW 00:29:45 67° NE 00:44:29 10° ESE visible
10 Dec - 02:22:41 10° WNW 02:36:45 47° SW 02:49:40 10° SSE visible
10 Dec - 04:39:00 10° WSW 04:44:27 13° SW 04:49:28 10° S visible
10 Dec - 11:11:08 10° SSE 11:12:40 11° SSE 11:14:07 10° SE daylight
10 Dec - 13:12:09 10° WSW 13:16:43 65° NW 13:21:17 10° NE daylight
10 Dec - 21:41:53 10° N 21:49:20 18° NE 21:57:48 10° ENE night (unlit)
10 Dec - 23:43:11 10° NW 23:56:25 60° NE 00:11:08 10° ESE visible
11 Dec - 01:49:11 10° WNW 02:03:24 53° SW 02:17:02 10° SSE visible
11 Dec - 04:03:17 10° WSW 04:11:06 16° SW 04:18:15 10° S visible
11 Dec - 12:39:43 10° SW 12:44:33 88° NW 12:49:02 10° NE daylight
11 Dec - 21:10:33 10° N 21:16:08 14° NE 21:22:22 10° ENE night (unlit)
11 Dec - 23:10:37 10° NNW 23:23:07 53° NE 23:37:37 10° ESE visible
12 Dec - 01:15:53 10° WNW 01:30:01 60° SW 01:44:18 10° SE visible
12 Dec - 03:28:14 10° WSW 03:37:44 19° SW 03:46:27 10° S visible
12 Dec - 12:07:16 10° SW 12:12:21 70° SE 12:16:46 10° NE daylight
12 Dec - 20:40:32 10° NNE 20:42:58 11° NE 20:45:31 10° NE night (unlit)
12 Dec - 22:38:12 10° NNW 22:49:53 46° NE 23:03:55 10° ESE visible
13 Dec - 00:42:45 10° WNW 00:56:39 67° SW 01:11:25 10° SE visible
13 Dec - 02:53:39 10° W 03:04:20 23° SW 03:14:21 10° S visible
13 Dec - 11:34:48 10° SW 11:40:07 53° SE 11:44:29 10° ENE daylight
13 Dec - 13:41:56 10° WNW 13:43:43 12° NW 13:45:31 10° NNW daylight
13 Dec - 22:05:54 10° NNW 22:16:43 39° NE 22:30:03 10° ESE night (unlit)
14 Dec - 00:09:45 10° NW 00:23:17 75° SW 00:38:23 10° SE visible
14 Dec - 02:19:24 10° W 02:30:55 27° SW 02:42:02 10° SSE visible
14 Dec - 11:02:19 10° SSW 11:07:48 42° SE 11:12:10 10° ENE daylight
14 Dec - 13:08:28 10° W 13:11:23 16° NW 13:14:11 10° N daylight
14 Dec - 21:33:46 10° NNW 21:43:37 34° NE 21:55:59 10° ESE night (unlit)
14 Dec - 23:36:56 10° NW 23:49:56 83° SW 00:05:15 10° SE visible
15 Dec - 01:45:26 10° W 01:57:29 31° SW 02:09:33 10° SSE visible
15 Dec - 10:29:47 10° SSW 10:35:27 34° SE 10:39:50 10° ENE daylight
15 Dec - 12:35:20 10° W 12:39:06 22° NW 12:42:34 10° N daylight
15 Dec - 21:01:47 10° NNW 21:10:36 28° NE 21:21:42 10° E night (unlit)
15 Dec - 23:04:14 10° NW 23:16:39 88° NE 23:31:58 10° SE visible
16 Dec - 01:11:44 10° W 01:24:03 35° SW 01:36:54 10° SSE visible
16 Dec - 09:57:12 10° SSW 10:03:01 29° SE 10:07:27 10° E daylight
16 Dec - 12:02:17 10° WSW 12:06:52 29° NW 12:10:48 10° NNE daylight
16 Dec - 20:30:01 10° N 20:37:38 23° NE 20:47:11 10° E visible
16 Dec - 22:31:41 10° NW 22:43:26 79° NE 22:58:34 10° SE visible
17 Dec - 00:38:15 10° WNW 00:50:37 39° SW 01:04:07 10° SSE visible
17 Dec - 02:55:10 10° SW 02:59:55 12° SSW 03:04:32 10° S visible
17 Dec - 09:24:35 10° SSW 09:30:30 25° SSE 09:34:59 10° E daylight
17 Dec - 11:29:17 10° WSW 11:34:40 39° NW 11:38:58 10° NNE daylight
17 Dec - 19:58:30 10° N 20:04:45 18° NE 20:12:21 10° E visible
17 Dec - 21:59:14 10° NW 22:10:17 70° NE 22:25:03 10° SE visible
